Content
SEND FEEDBACK

Daily
Averages
Monthly
Summary
United States of America

NEMO, SOUTH DAKOTA


Home > North America > United States > South Dakota
Elevation: 4678 feet     Latitude: 44 04N     Longitude: 103 29W

WEATHER
 
SELECT A DAY
Number of Records: 204,161;   Date Range: 1/1/95 - 8/12/14
 
SHARE

PRINT THIS DATA

[ ← Previous Day ]
WEATHER ALMANAC - JANUARY 31, 2013
[ Next Day → ]
[ °C ]   °F
Weather ElementAverageHighLow
Temperature6.1 °F12.2 °F (12:50 am)-0.4 °F (8:12 am)
Dewpoint0.5 °F8.6 °F (12:50 am)-6.5 °F (9:55 am)
Humidity77.9 %85 % (12:50 am)63 % (11:55 am)
Barometer30.23 in30.41 in (9:55 am)30.06 in (12:50 am)
Wind Speed20.3 mph29.9 mph (3:24 am)
Wind Gust38 mph (4:44 am)
Weather ElementAverage
Visibility4.1 mi
Wind DirectionWNW (286.7 °)

Weather ElementTotal
Precipitation---
Heating Degree Days59.1 (Base 65)
Averaged from 58 records on January 31, 2013
WEATHER CONDITIONS BREAKOUT
WIND DIRECTION BREAKOUT
WEATHER BY HOUR - JANUARY 31, 2013
[ °C ]   °F
Local TimeTemperatureDewpointHumidityBarometerVisibilityWind DirectionWind SpeedGust SpeedPrecipitationEventsConditions
12:50 AM12.2 °F8.6 °F85 %30.06 in0.8 miNNW (340°)26.5 mph32.2 mphSnowBlowing Snow
12:55 AM12.0 °F8.4 °F85 %30.06 in0.8 miNorth (350°)23.0 mph32.2 mph0.00 inSnowBlowing Snow
1:06 AM12.2 °F8.6 °F85 %30.06 in0.2 miNNW (340°)28.8 mph33.4 mphSnowBlowing Snow
1:21 AM10.4 °F6.8 °F85 %30.07 in0.2 miNorth (350°)26.5 mph34.5 mphSnowBlowing Snow
1:41 AM10.4 °F6.8 °F85 %30.08 in1.2 miNorth (350°)25.3 mph34.5 mphSnowBlowing Snow
1:47 AM10.4 °F6.8 °F85 %30.08 in3.0 miNorth (350°)25.3 mph34.5 mphSnowBlowing Snow
1:55 AM10.0 °F5.9 °F83 %30.09 in1.5 miNorth (350°)24.2 mph32.2 mph0.00 inSnowBlowing Snow
2:10 AM10.4 °F5.0 °F79 %30.10 in1.0 miNNW (340°)25.3 mph31.1 mphSnowBlowing Snow
2:46 AM8.6 °F3.2 °F79 %30.12 in2.0 miNNW (340°)24.2 mph33.4 mphSnowBlowing Snow
2:55 AM7.9 °F3.2 °F81 %30.12 in1.8 miNNW (340°)26.5 mph32.2 mph0.00 inSnowBlowing Snow
2:57 AM8.6 °F3.2 °F79 %30.12 in1.5 miNNW (340°)25.3 mph32.2 mphSnowBlowing Snow
3:09 AM8.6 °F3.2 °F79 %30.13 in1.2 miNNW (340°)24.2 mph34.5 mphSnowBlowing Snow
3:24 AM6.8 °F3.2 °F85 %30.15 in1.0 miNNW (340°)29.9 mph36.8 mphSnowBlowing Snow
3:27 AM6.8 °F1.4 °F79 %30.15 in1.2 miNNW (340°)28.8 mph36.8 mphSnowBlowing Snow
3:32 AM6.8 °F1.4 °F79 %30.16 in1.5 miNNW (340°)26.5 mph35.7 mphSnowBlowing Snow
3:37 AM6.8 °F1.4 °F79 %30.16 in1.8 miNorth (350°)23.0 mph32.2 mphSnowBlowing Snow
3:42 AM6.8 °F1.4 °F79 %30.17 in2.0 miNorth (350°)21.9 mph31.1 mphSnowBlowing Snow
3:51 AM6.8 °F1.4 °F79 %30.16 in1.8 miNNW (340°)23.0 mphSnowBlowing Snow
3:55 AM5.9 °F1.2 °F81 %30.17 in1.5 miNNW (340°)23.0 mph29.9 mph0.00 inSnowBlowing Snow
4:03 AM5.0 °F1.4 °F85 %30.17 in1.2 miNNW (340°)26.5 mph33.4 mphSnowBlowing Snow
4:23 AM5.0 °F-0.4 °F78 %30.18 in1.5 miNorth (350°)24.2 mph32.2 mphSnowBlowing Snow
4:36 AM5.0 °F-0.4 °F78 %30.19 in1.2 miNorth (350°)24.2 mph33.4 mphSnowLight Snow
4:44 AM5.0 °F-0.4 °F78 %30.19 in1.0 miNNW (340°)26.5 mph38.0 mphSnowLight Snow
4:55 AM5.4 °F0.9 °F82 %30.20 in1.0 miNorth (350°)26.5 mph34.5 mph0.00 inSnowLight Snow
4:56 AM5.0 °F1.4 °F85 %30.20 in1.2 miNorth (350°)24.2 mph34.5 mphSnowLight Snow
5:03 AM5.0 °F1.4 °F85 %30.20 in1.0 miNNW (340°)26.5 mph34.5 mphSnowLight Snow
5:09 AM5.0 °F1.4 °F85 %30.20 in1.0 miNNW (340°)27.6 mph34.5 mphSnowBlowing Snow
5:18 AM5.0 °F1.4 °F85 %30.21 in0.8 miNorth (350°)26.5 mph38.0 mphSnowBlowing Snow
5:25 AM5.0 °F1.4 °F85 %30.22 in1.2 miNorth (350°)26.5 mph33.4 mphSnowBlowing Snow
5:41 AM5.0 °F-0.4 °F78 %30.23 in1.0 miNNW (340°)25.3 mph35.7 mphSnowLight Snow
5:55 AM5.0 °F0.1 °F80 %30.24 in1.5 miNNW (340°)24.2 mph32.2 mph0.00 inSnowLight Snow
5:58 AM5.0 °F-0.4 °F78 %30.24 in1.8 miNNW (340°)24.2 mph32.2 mphSnowLight Snow
6:03 AM5.0 °F-0.4 °F78 %30.25 in2.5 miNNW (340°)21.9 mph31.1 mphSnowBlowing Snow
6:09 AM5.0 °F-0.4 °F78 %30.25 in3.0 miNNW (340°)21.9 mph29.9 mphSnowBlowing Snow
6:23 AM5.0 °F-0.4 °F78 %30.27 in2.5 miNorth (350°)24.2 mph28.8 mphSnowBlowing Snow
6:39 AM3.2 °F-2.2 °F78 %30.29 in2.5 miNorth (350°)25.3 mph32.2 mphSnowBlowing Snow
6:42 AM3.2 °F-2.2 °F78 %30.29 in2.5 miNorth (360°)25.3 mph32.2 mphSnowBlowing Snow
6:45 AM3.2 °F-2.2 °F78 %30.28 in3.0 miNorth (360°)25.3 mph32.2 mphSnowLight Snow
6:53 AM3.2 °F-4.0 °F72 %30.28 in3.0 miNorth (350°)25.3 mph32.2 mphOvercast
6:55 AM2.3 °F-3.3 °F77 %30.28 in3.0 miNorth (350°)25.3 mph32.2 mph0.00 inOvercast
7:55 AM0.0 °F-5.8 °F77 %30.33 in7.0 miNorth (360°)23.0 mph0.00 inLight Drizzle
8:12 AM-0.4 °F-5.8 °F78 %30.35 in9.0 miNorth (360°)20.7 mphOvercast
8:55 AM0.9 °F-5.8 °F74 %30.35 in10.0 miNorth (360°)23.0 mphOvercast
9:55 AM0.9 °F-6.5 °F71 %30.41 in10.0 miNorth (10°)12.7 mph0.00 inOvercast
10:55 AM3.6 °F-5.1 °F67 %30.41 in10.0 miNorth (10°)11.5 mphOvercast
11:55 AM5.0 °F-5.1 °F63 %30.38 in10.0 miNorth (360°)11.5 mphOvercast
12:55 PM5.4 °F-4.2 °F65 %30.38 in10.0 miNorth (10°)8.1 mphOvercast
1:55 PM6.8 °F-3.3 °F63 %30.36 in10.0 miNorth (10°)6.9 mphOvercast
2:55 PM6.8 °F-2.2 °F67 %30.36 in10.0 miCalmOvercast
3:55 PM7.0 °F-2.0 °F67 %30.34 in10.0 miCalmOvercast
4:55 PM6.6 °F-1.7 °F69 %30.33 in10.0 miESE (120°)4.6 mphOvercast
5:55 PM6.1 °F-0.9 °F73 %30.34 in10.0 miSE (140°)4.6 mphOvercast
6:55 PM5.4 °F-0.6 °F76 %30.34 in10.0 miSSE (150°)6.9 mphOvercast
7:55 PM7.2 °F0.5 °F74 %30.32 in10.0 miSouth (180°)5.8 mphOvercast
8:55 PM7.5 °F1.4 °F76 %30.31 in10.0 miSouth (170°)4.6 mphOvercast
9:55 PM7.0 °F1.2 °F77 %30.30 in10.0 miSouth (180°)6.9 mphOvercast
10:55 PM7.7 °F1.6 °F76 %30.27 in10.0 miSSW (200°)9.2 mphMostly Cloudy
11:55 PM9.0 °F2.3 °F74 %30.24 in10.0 miSSW (200°)8.1 mphOvercast
Hourly data recorded from KRCA, located miles away from Nemo, South Dakota







STORIES FROM OUR PARTNERS